CST,Max TemperatureF,Mean TemperatureF,Min TemperatureF,Max Dew PointF,MeanDew PointF,Min DewpointF,Max Humidity, Mean Humidity, Min Humidity, Max Sea Level PressureIn, Mean Sea Level PressureIn, Min Sea Level PressureIn, Max VisibilityMiles, Mean VisibilityMiles, Min VisibilityMiles, Max Wind SpeedMPH, Mean Wind SpeedMPH, Max Gust SpeedMPH,PrecipitationIn, CloudCover, Events, WindDirDegrees
2012-12-1,77,64,52,39,34,30,55,35,19,30.23,30.19,30.15,10,10,5,18,11,23,0.00,0,,205
2012-12-2,79,64,48,36,33,28,54,35,18,30.25,30.19,30.14,10,10,10,17,7,25,0.00,0,,198
2012-12-3,75,62,48,37,28,19,53,31,12,30.23,30.16,30.11,10,10,10,18,10,25,0.00,0,,216
2012-12-4,61,48,34,34,29,24,80,47,32,30.43,30.36,30.23,10,10,10,13,6,16,0.00,0,,99
2012-12-5,69,51,33,34,31,29,89,50,25,30.41,30.27,30.13,10,10,10,14,7,21,0.00,0,,206
2012-12-6,77,62,47,33,28,23,55,30,13,30.13,30.04,29.98,10,10,10,18,9,24,0.00,0,,214
2012-12-7,73,58,44,27,23,18,46,28,12,30.04,29.99,29.95,10,10,7,18,9,24,0.00,0,,219
2012-12-8,70,54,38,28,23,20,49,31,16,30.08,30.02,29.96,10,10,10,18,8,25,0.00,0,,217
2012-12-9,68,54,39,34,27,22,79,36,20,30.21,30.02,29.95,10,10,10,21,8,26,0.00,0,,218
2012-12-10,50,36,22,33,17,10,77,51,28,30.24,30.14,30.04,10,10,7,24,9,31,0.00,1,,19
2012-12-11,55,38,22,10,8,3,53,33,12,30.23,30.12,30.06,10,10,10,14,5,22,0.00,0,,214
2012-12-12,63,43,23,21,13,6,52,30,14,30.25,30.20,30.14,10,10,7,17,8,23,0.00,0,,193
2012-12-13,67,52,36,30,22,16,46,33,20,30.22,30.16,30.10,10,10,10,16,6,24,0.00,0,,184
2012-12-14,69,57,45,44,36,30,58,45,28,30.11,29.99,29.85,10,10,5,33,15,43,0.00,1,,183
2012-12-15,65,52,40,31,24,15,57,39,16,30.11,30.04,29.99,10,10,10,22,9,28,0.00,0,,185
2012-12-16,59,50,42,29,26,21,54,39,24,30.13,30.03,29.94,10,10,7,31,10,43,0.00,0,,242
2012-12-17,63,50,38,29,23,15,66,40,16,30.15,30.11,30.04,10,10,10,28,12,34,0.00,0,,207
2012-12-18,74,60,47,17,13,10,29,17,9,30.08,29.97,29.89,10,10,10,28,13,36,0.00,0,,211
2012-12-19,70,54,37,30,9,-6,41,16,6,30.26,29.91,29.79,10,9,2,39,17,50,0.00,1,,237
2012-12-20,49,32,15,10,5,-2,63,31,14,30.54,30.45,30.26,10,10,5,17,6,23,0.00,0,,43
2012-12-21,59,44,30,3,-3,-9,28,16,6,30.48,30.37,30.28,10,10,7,13,6,18,0.00,1,,185
2012-12-22,66,52,39,22,10,-2,27,18,13,30.30,30.22,30.15,10,10,10,18,8,23,0.00,1,,214
2012-12-23,67,56,44,36,28,20,43,35,25,30.21,30.16,30.09,10,10,10,18,10,29,0.00,1,,225
2012-12-24,70,54,39,32,20,5,51,30,8,30.13,29.98,29.81,10,10,10,21,10,28,0.00,0,,223
2012-12-25,53,40,25,29,19,10,52,38,20,30.24,30.02,29.79,10,10,3,34,17,50,0.00,0,,307
2012-12-26,55,36,16,18,14,8,69,42,23,30.24,30.09,29.96,10,10,7,10,3,,0.00,0,,183
2012-12-27,64,48,32,17,14,8,44,26,12,29.96,29.87,29.78,10,10,10,16,9,22,0.00,0,,192
2012-12-28,50,38,25,24,13,4,62,35,16,30.24,30.08,29.92,10,10,10,18,7,28,0.00,0,,248
2012-12-29,49,36,24,15,12,7,51,38,23,30.39,30.30,30.24,10,10,7,13,6,16,0.00,0,,153
2012-12-30,55,44,34,37,29,15,75,50,35,30.27,30.09,30.00,10,10,10,24,11,32,0.00,2,,160
2012-12-31,57,44,31,36,30,24,74,51,28,30.16,30.04,29.97,10,10,10,23,13,30,0.00,0,,193